Location: Beverley
(50.2667°N, 107.9667°W)
Time: 01:11:57
(UTC+00:00)

Envisat - Pass Details

Date: 30 January 2022
Orbit: 764 x 765 km, 98.2° (Epoch: 22 May)

Event Time Altitude Azimuth Distance (km) Brightness Sun altitude
Rises 11:47:55 0° 17° (NNE) 3,243 6.5 -28.9°
Reaches altitude 10° 11:50:18 10° 23° (NNE) 2,313 5.8 -28.5°
Maximum altitude 11:55:16 52° 99° (E) 952 3.7 -27.7°
Drops below altitude 10° 12:00:12 10° 176° (S) 2,297 5.4 -26.9°
Sets 12:02:34 0° 181° (S) 3,219 6.2 -26.6°
